Find Starlink 30956

NORAD ID: 58481 Int'l Des: 2023-186 Owner: SPXS Country: US Constellation: starlink operational
LEOCIRCULAR

Current View

Loading 3D Globe...

About Starlink 30956

Starlink 30956 (NORAD 58481) is a starlink constellation satellite (v2 mini) launched Dec 3, 2023 by SPXS of US. It operates in LEO, CIRCULAR orbit with a mass of 730.00 kg.

Upcoming Passes

Passes for default location (London). Set your location on the main map for personalized predictions.

Altitude History

Loading altitude history...

Two-Line Element Set

1 58481U 23186J 26235.23848336 .00001192 00000-0 52842-4 0 9999
2 58481 43.0028 180.6995 0001462 265.0290 95.0395 15.27575136151628
Epoch: Aug 23, 2026 • Age: 18 hours

Current Status

Altitude 495.4 km
Apogee / Perigee N/A
Velocity 7.62 km/s
Sub-Earth Point -43.15°S, 113.19°E
Launch Date Dec 3, 2023
Age 2.7 years
Type internet

Technical Details

Classification Payload
Mass 730.00 kg
Dry Mass 700.00 kg
Total Mass 730.00 kg
Length 0.30 m
Diameter 4.10 m
Span 29.00 m
Shape Box + pan
Manufacturer SPXS
Bus Type Starlink V2M
Phase Status In Orbit
Owner/State SPXS/US

Most Searched